QPF
0.10 0.07 0.05 0.03 0.02 0.01 0.01 0.01 0.01 0.01 0.01 0.01 0.01 0.01 0.01 0.01 0.00 0.00 0.00 0.00 0.00 0.00 0.00 0.00 0.00 0.00 0.00 0.00 0.00 0.00 0.01 0.01 0.01 0.01 0.01 0.01 0.02 0.02
0.09 0.08 0.06 0.05 0.04 0.04 0.03 0.04 0.04 0.05 0.05 0.04 0.03 0.02 0.01 0.01 0.00 0.00 0.00 0.00 0.00 0.00 0.00 0.00 0.00 0.00 0.00 0.00 0.00 0.01 0.01 0.01 0.01 0.01 0.01 0.02 0.02 0.03
0.08 0.08 0.08 0.08 0.08 0.07 0.07 0.07 0.08 0.07 0.06 0.04 0.03 0.02 0.01 0.01 0.01 0.00 0.00 0.00 0.00 0.00 0.00 0.00 0.00 0.00 0.00 0.00 0.00 0.00 0.01 0.01 0.01 0.01 0.01 0.02 0.02 0.02
0.07 0.09 0.10 0.11 0.12 0.12 0.12 0.12 0.11 0.09 0.07 0.05 0.03 0.02 0.02 0.01 0.01 0.00 0.00 0.00 0.00 0.00 0.00 0.00 0.00 0.00 0.00 0.00 0.00 0.00 0.01 0.01 0.01 0.01 0.01 0.01 0.01 0.01
0.07 0.09 0.10 0.12 0.13 0.13 0.12 0.12 0.10 0.08 0.06 0.04 0.03 0.01 0.01 0.00 0.00 0.00 0.00 0.00 0.00 0.00 0.00 0.00 0.00 0.00 0.00 0.00 0.00 0.00 0.00 0.00 0.00 0.00 0.00 0.01 0.01 0.01
0.07 0.08 0.10 0.11 0.13 0.13 0.13 0.12 0.10 0.07 0.05 0.03 0.02 0.01 0.00 0.00 0.00 0.00 0.00 0.00 0.00 0.00 0.00 0.00 0.00 0.00 0.00 0.00 0.00 0.00 0.00 0.00 0.00 0.00 0.00 0.00 0.01 0.01
0.10 0.11 0.13 0.15 0.15 0.14 0.11 0.09 0.06 0.04 0.03 0.02 0.01 0.00 0.00 0.00 0.00 0.00 0.00 0.00 0.00 0.00 0.00 0.00 0.00 0.00 0.00 0.00 0.00 0.00 0.00 0.00 0.00 0.00 0.01 0.01 0.01 0.01
0.12 0.13 0.14 0.15 0.13 0.10 0.07 0.05 0.03 0.02 0.02 0.01 0.00 0.00 0.00 0.00 0.00 0.00 0.00 0.00 0.00 0.00 0.00 0.00 0.00 0.00 0.00 0.00 0.00 0.00 0.00 0.00 0.00 0.00 0.01 0.01 0.01 0.01
0.15 0.14 0.12 0.10 0.07 0.05 0.03 0.02 0.01 0.01 0.01 0.00 0.00 0.00 0.00 0.00 0.00 0.00 0.00 0.01 0.01 0.00 0.00 0.00 0.00 0.00 0.00 0.00 0.00 0.00 0.00 0.00 0.00 0.00 0.00 0.01 0.01 0.01
0.12 0.10 0.07 0.05 0.03 0.02 0.01 0.01 0.00 0.00 0.00 0.00 0.00 0.00 0.00 0.00 0.01 0.01 0.01 0.01 0.00 0.00 0.00 0.00 0.00 0.00 0.00 0.00 0.00 0.00 0.00 0.00 0.00 0.00 0.00 0.00 0.01 0.01
0.07 0.04 0.03 0.01 0.01 0.01 0.00 0.00 0.00 0.00 0.00 0.00 0.00 0.00 0.00 0.00 0.00 0.00 0.00 0.00 0.00 0.00 0.00 0.00 0.00 0.00 0.00 0.00 0.00 0.00 0.00 0.00 0.00 0.00 0.00 0.00 0.00 0.01
0.02 0.01 0.01 0.00 0.00 0.00 0.00 0.00 0.00 0.00 0.00 0.00 0.00 0.00 0.00 0.00 0.00 0.00 0.00 0.00 0.01 0.01 0.00 0.00 0.00 0.00 0.01 0.00 0.00 0.00 0.00 0.00 0.00 0.00 0.00 0.00 0.00 0.00
0.00 0.00 0.00 0.00 0.00 0.00 0.00 0.00 0.00 0.00 0.00 0.00 0.00 0.00 0.00 0.00 0.00 0.00 0.00 0.00 0.01 0.01 0.00 0.01 0.01 0.01 0.02 0.01 0.00 0.00 0.00 0.00 0.00 0.00 0.00 0.00 0.00 0.00
0.00 0.00 0.00 0.00 0.00 0.00 0.00 0.00 0.00 0.00 0.00 0.00 0.00 0.00 0.00 0.00 0.00 0.00 0.00 0.00 0.00 0.00 0.00 0.01 0.03 0.02 0.03 0.02 0.00 0.00 0.00 0.00 0.00 0.00 0.00 0.00 0.00 0.00
0.00 0.00 0.00 0.00 0.00 0.00 0.00 0.00 0.00 0.00 0.00 0.00 0.00 0.00 0.00 0.00 0.00 0.00 0.00 0.00 0.00 0.00 0.00 0.00 0.01 0.01 0.03 0.03 0.01 0.00 0.00 0.00 0.00 0.00 0.00 0.00 0.00 0.00
0.00 0.00 0.00 0.00 0.00 0.00 0.00 0.00 0.00 0.00 0.00 0.00 0.00 0.00 0.00 0.00 0.00 0.00 0.00 0.00 0.00 0.00 0.00 0.00 0.00 0.01 0.02 0.02 0.02 0.01 0.00 0.00 0.00 0.00 0.00 0.00 0.00 0.00
0.00 0.00 0.00 0.00 0.00 0.00 0.00 0.00 0.00 0.00 0.00 0.00 0.00 0.00 0.00 0.00 0.00 0.00 0.00 0.00 0.01 0.00 0.00 0.00 0.00 0.00 0.01 0.02 0.02 0.01 0.00 0.00 0.00 0.00 0.01 0.01 0.00 0.00
0.00 0.00 0.00 0.00 0.00 0.00 0.00 0.00 0.00 0.00 0.00 0.00 0.00 0.00 0.00 0.00 0.00 0.00 0.00 0.01 0.01 0.00 0.00 0.00 0.00 0.01 0.01 0.00 0.00 0.00 0.00 0.00 0.00 0.00 0.01 0.02 0.01 0.00
0.00 0.00 0.00 0.00 0.00 0.00 0.00 0.00 0.00 0.00 0.00 0.00 0.00 0.00 0.01 0.01 0.00 0.00 0.00 0.01 0.01 0.00 0.00 0.00 0.01 0.03 0.04 0.02 0.00 0.00 0.01 0.02 0.02 0.01 0.01 0.01 0.01 0.00
0.00 0.00 0.00 0.00 0.00 0.00 0.00 0.00 0.00 0.00 0.00 0.00 0.00 0.00 0.01 0.01 0.01 0.01 0.01 0.01 0.01 0.01 0.01 0.00 0.01 0.02 0.07 0.06 0.03 0.00 0.00 0.02 0.06 0.06 0.02 0.01 0.01 0.00
0.00 0.00 0.00 0.00 0.00 0.00 0.00 0.00 0.00 0.00 0.00 0.00 0.00 0.00 0.01 0.01 0.01 0.01 0.01 0.01 0.01 0.01 0.01 0.00 0.00 0.00 0.02 0.06 0.05 0.01 0.00 0.00 0.04 0.09 0.10 0.08 0.04 0.01
0.00 0.00 0.00 0.00 0.00 0.00 0.00 0.00 0.00 0.00 0.00 0.00 0.00 0.01 0.01 0.01 0.01 0.01 0.01 0.01 0.01 0.01 0.01 0.01 0.00 0.01 0.03 0.06 0.05 0.01 0.00 0.00 0.00 0.01 0.04 0.10 0.15 0.08
0.00 0.00 0.00 0.00 0.00 0.00 0.00 0.00 0.00 0.00 0.00 0.01 0.01 0.01 0.01 0.01 0.01 0.01 0.01 0.01 0.02 0.02 0.02 0.01 0.01 0.01 0.01 0.02 0.03 0.02 0.01 0.00 0.00 0.00 0.00 0.01 0.02 0.03
MSLP
1014.33 1014.71 1015.09 1015.49 1015.93 1016.43 1017.02 1017.68 1018.40 1019.17 1019.94 1020.68 1021.36 1021.93 1022.40 1022.74 1022.97 1023.10 1023.14 1023.12 1023.05 1022.94 1022.79 1022.60 1022.37 1022.11 1021.82 1021.50 1021.16 1020.82 1020.49 1020.16 1019.85 1019.55 1019.25 1018.96 1018.66 1018.36
1014.34 1014.78 1015.21 1015.66 1016.14 1016.69 1017.29 1017.95 1018.67 1019.40 1020.13 1020.81 1021.41 1021.91 1022.29 1022.56 1022.71 1022.78 1022.77 1022.71 1022.61 1022.48 1022.33 1022.15 1021.94 1021.70 1021.42 1021.12 1020.80 1020.46 1020.12 1019.78 1019.45 1019.12 1018.79 1018.46 1018.12 1017.79
1014.53 1015.04 1015.54 1016.05 1016.58 1017.15 1017.76 1018.40 1019.07 1019.74 1020.39 1020.98 1021.48 1021.88 1022.16 1022.34 1022.41 1022.40 1022.33 1022.22 1022.08 1021.92 1021.75 1021.55 1021.34 1021.10 1020.82 1020.53 1020.22 1019.89 1019.56 1019.23 1018.90 1018.56 1018.23 1017.88 1017.53 1017.17
1014.87 1015.45 1016.02 1016.58 1017.15 1017.73 1018.32 1018.92 1019.52 1020.10 1020.64 1021.12 1021.51 1021.79 1021.97 1022.05 1022.04 1021.96 1021.84 1021.67 1021.49 1021.29 1021.07 1020.84 1020.60 1020.33 1020.05 1019.75 1019.44 1019.12 1018.81 1018.50 1018.19 1017.88 1017.56 1017.23 1016.89 1016.53
1015.35 1015.98 1016.59 1017.19 1017.77 1018.33 1018.88 1019.41 1019.92 1020.39 1020.81 1021.16 1021.42 1021.60 1021.68 1021.68 1021.61 1021.48 1021.31 1021.10 1020.87 1020.62 1020.36 1020.08 1019.78 1019.47 1019.15 1018.83 1018.51 1018.20 1017.91 1017.63 1017.36 1017.09 1016.81 1016.52 1016.20 1015.87
1015.95 1016.59 1017.21 1017.80 1018.35 1018.87 1019.35 1019.79 1020.19 1020.54 1020.83 1021.05 1021.21 1021.29 1021.30 1021.24 1021.13 1020.97 1020.77 1020.54 1020.28 1019.98 1019.67 1019.32 1018.96 1018.59 1018.21 1017.84 1017.50 1017.19 1016.90 1016.65 1016.42 1016.20 1015.97 1015.73 1015.46 1015.15
1016.63 1017.24 1017.82 1018.36 1018.86 1019.30 1019.69 1020.02 1020.29 1020.51 1020.68 1020.79 1020.85 1020.86 1020.83 1020.75 1020.63 1020.47 1020.27 1020.03 1019.75 1019.43 1019.06 1018.65 1018.22 1017.76 1017.31 1016.89 1016.50 1016.15 1015.86 1015.62 1015.42 1015.24 1015.05 1014.86 1014.63 1014.36
1017.34 1017.87 1018.38 1018.84 1019.24 1019.58 1019.86 1020.07 1020.23 1020.33 1020.39 1020.41 1020.40 1020.37 1020.31 1020.24 1020.14 1020.01 1019.83 1019.61 1019.33 1018.99 1018.58 1018.12 1017.61 1017.07 1016.54 1016.03 1015.57 1015.18 1014.85 1014.60 1014.39 1014.22 1014.06 1013.90 1013.70 1013.46
1018.03 1018.45 1018.85 1019.20 1019.49 1019.72 1019.89 1019.99 1020.03 1020.04 1020.01 1019.96 1019.91 1019.85 1019.80 1019.75 1019.69 1019.60 1019.48 1019.29 1019.03 1018.68 1018.25 1017.74 1017.16 1016.55 1015.92 1015.33 1014.78 1014.31 1013.93 1013.62 1013.39 1013.20 1013.03 1012.86 1012.67 1012.44
1018.62 1018.92 1019.20 1019.44 1019.62 1019.74 1019.80 1019.81 1019.77 1019.69 1019.60 1019.51 1019.43 1019.38 1019.34 1019.32 1019.30 1019.27 1019.19 1019.05 1018.82 1018.48 1018.04 1017.49 1016.86 1016.18 1015.48 1014.79 1014.16 1013.60 1013.13 1012.75 1012.44 1012.20 1011.99 1011.79 1011.58 1011.34
1019.07 1019.26 1019.42 1019.56 1019.64 1019.68 1019.66 1019.60 1019.50 1019.37 1019.25 1019.13 1019.04 1018.98 1018.96 1018.96 1018.98 1018.99 1018.95 1018.84 1018.64 1018.31 1017.87 1017.31 1016.65 1015.92 1015.16 1014.40 1013.68 1013.03 1012.47 1011.99 1011.60 1011.27 1010.99 1010.73 1010.47 1010.21
1019.36 1019.45 1019.53 1019.58 1019.60 1019.58 1019.51 1019.41 1019.28 1019.13 1018.98 1018.84 1018.74 1018.68 1018.66 1018.67 1018.69 1018.71 1018.70 1018.61 1018.42 1018.11 1017.68 1017.12 1016.45 1015.70 1014.90 1014.09 1013.31 1012.58 1011.92 1011.35 1010.86 1010.43 1010.06 1009.73 1009.41 1009.10
1019.49 1019.52 1019.55 1019.55 1019.54 1019.49 1019.40 1019.28 1019.14 1018.98 1018.82 1018.67 1018.55 1018.46 1018.42 1018.41 1018.41 1018.42 1018.39 1018.29 1018.11 1017.81 1017.38 1016.84 1016.17 1015.43 1014.62 1013.78 1012.96 1012.18 1011.45 1010.79 1010.21 1009.69 1009.23 1008.81 1008.42 1008.06
1019.53 1019.53 1019.52 1019.51 1019.48 1019.42 1019.34 1019.23 1019.09 1018.92 1018.75 1018.58 1018.43 1018.31 1018.22 1018.15 1018.11 1018.06 1017.99 1017.86 1017.65 1017.35 1016.93 1016.40 1015.76 1015.03 1014.24 1013.41 1012.58 1011.76 1010.99 1010.27 1009.61 1009.01 1008.47 1007.97 1007.52 1007.10
1019.53 1019.51 1019.49 1019.48 1019.45 1019.40 1019.33 1019.23 1019.09 1018.93 1018.74 1018.55 1018.36 1018.18 1018.03 1017.89 1017.76 1017.64 1017.49 1017.31 1017.06 1016.72 1016.30 1015.78 1015.16 1014.46 1013.70 1012.90 1012.08 1011.26 1010.47 1009.71 1009.00 1008.34 1007.72 1007.16 1006.65 1006.18
1019.54 1019.51 1019.49 1019.47 1019.45 1019.41 1019.35 1019.25 1019.12 1018.95 1018.75 1018.53 1018.30 1018.06 1017.83 1017.60 1017.38 1017.16 1016.92 1016.66 1016.34 1015.97 1015.52 1014.99 1014.39 1013.72 1012.98 1012.21 1011.41 1010.61 1009.82 1009.04 1008.30 1007.59 1006.93 1006.31 1005.74 1005.23
1019.60 1019.56 1019.52 1019.49 1019.46 1019.42 1019.36 1019.26 1019.13 1018.95 1018.74 1018.49 1018.21 1017.91 1017.61 1017.30 1016.98 1016.66 1016.33 1015.97 1015.57 1015.13 1014.64 1014.08 1013.47 1012.80 1012.09 1011.34 1010.56 1009.77 1008.98 1008.19 1007.43 1006.69 1005.99 1005.33 1004.72 1004.17
1019.69 1019.62 1019.57 1019.51 1019.46 1019.40 1019.32 1019.22 1019.07 1018.88 1018.66 1018.39 1018.08 1017.74 1017.38 1016.99 1016.59 1016.18 1015.74 1015.29 1014.80 1014.28 1013.71 1013.10 1012.45 1011.76 1011.04 1010.28 1009.51 1008.72 1007.92 1007.13 1006.36 1005.60 1004.87 1004.18 1003.53 1002.95
1019.79 1019.68 1019.59 1019.50 1019.41 1019.32 1019.21 1019.09 1018.93 1018.73 1018.49 1018.21 1017.89 1017.53 1017.12 1016.69 1016.22 1015.73 1015.20 1014.65 1014.06 1013.44 1012.78 1012.09 1011.38 1010.64 1009.87 1009.09 1008.29 1007.49 1006.68 1005.88 1005.09 1004.31 1003.56 1002.85 1002.18 1001.57
1019.83 1019.68 1019.54 1019.41 1019.28 1019.14 1019.01 1018.86 1018.68 1018.48 1018.24 1017.96 1017.63 1017.26 1016.84 1016.37 1015.85 1015.29 1014.69 1014.04 1013.35 1012.62 1011.86 1011.08 1010.27 1009.46 1008.63 1007.80 1006.96 1006.13 1005.31 1004.49 1003.69 1002.90 1002.13 1001.40 1000.72 1000.09
1019.78 1019.59 1019.40 1019.22 1019.05 1018.88 1018.71 1018.53 1018.34 1018.13 1017.89 1017.61 1017.29 1016.92 1016.48 1015.99 1015.44 1014.82 1014.15 1013.41 1012.63 1011.80 1010.94 1010.05 1009.15 1008.25 1007.35 1006.46 1005.58 1004.72 1003.88 1003.05 1002.24 1001.45 1000.68 999.94 999.25 998.62
1019.61 1019.39 1019.16 1018.94 1018.72 1018.52 1018.31 1018.11 1017.90 1017.68 1017.43 1017.16 1016.83 1016.45 1016.01 1015.50 1014.91 1014.25 1013.51 1012.71 1011.84 1010.92 1009.96 1008.99 1008.00 1007.02 1006.06 1005.12 1004.21 1003.33 1002.48 1001.65 1000.85 1000.06 999.31 998.58 997.89 997.25
1019.32 1019.07 1018.82 1018.57 1018.32 1018.08 1017.84 1017.61 1017.37 1017.13 1016.86 1016.57 1016.23 1015.83 1015.37 1014.83 1014.21 1013.50 1012.71 1011.85 1010.91 1009.92 1008.90 1007.86 1006.82 1005.79 1004.79 1003.83 1002.91 1002.03 1001.19 1000.38 999.60 998.84 998.10 997.39 996.71 996.08
Thickness
5582 5578 5574 5569 5566 5564 5563 5561 5556 5547 5537 5527 5518 5513 5508 5503 5498 5494 5492 5489 5485 5482 5479 5478 5476 5476 5475 5474 5473 5472 5471 5470 5468 5466 5465 5464 5463 5462
5568 5564 5560 5556 5553 5550 5548 5544 5540 5534 5522 5512 5505 5499 5493 5490 5486 5482 5479 5476 5473 5470 5466 5464 5462 5461 5461 5459 5458 5457 5455 5453 5451 5449 5447 5445 5443 5441
5554 5551 5547 5543 5539 5536 5532 5527 5521 5516 5507 5498 5491 5485 5480 5476 5473 5469 5465 5462 5461 5457 5453 5451 5448 5446 5445 5444 5442 5440 5438 5435 5432 5430 5427 5424 5421 5418
5541 5537 5534 5530 5524 5520 5515 5510 5504 5498 5492 5484 5478 5473 5467 5463 5459 5455 5451 5448 5445 5442 5439 5436 5433 5431 5429 5427 5425 5423 5420 5416 5413 5409 5406 5402 5399 5395
5526 5523 5519 5515 5509 5505 5500 5493 5488 5482 5476 5470 5466 5461 5455 5450 5446 5442 5438 5434 5431 5427 5424 5421 5418 5415 5412 5410 5408 5405 5401 5397 5393 5389 5385 5381 5377 5374
5507 5505 5503 5500 5495 5490 5484 5479 5473 5467 5461 5456 5453 5449 5444 5439 5433 5429 5426 5421 5416 5412 5408 5405 5402 5398 5394 5392 5389 5386 5382 5378 5374 5371 5367 5363 5360 5356
5488 5487 5485 5482 5479 5474 5470 5464 5459 5454 5450 5445 5441 5436 5432 5427 5422 5416 5410 5406 5401 5396 5393 5389 5384 5381 5377 5374 5371 5368 5365 5362 5359 5355 5352 5349 5345 5342
5472 5470 5468 5466 5463 5460 5456 5452 5447 5443 5438 5432 5427 5423 5419 5413 5406 5399 5393 5388 5383 5379 5376 5372 5365 5364 5360 5357 5354 5351 5349 5347 5345 5343 5340 5337 5334 5330
5457 5455 5454 5451 5448 5446 5442 5438 5434 5429 5424 5419 5414 5409 5403 5397 5389 5381 5374 5369 5364 5359 5356 5357 5349 5349 5345 5343 5339 5337 5337 5336 5335 5333 5331 5328 5325 5322
5444 5442 5440 5438 5436 5433 5429 5425 5420 5415 5410 5405 5399 5393 5386 5379 5371 5364 5358 5352 5347 5341 5338 5341 5338 5337 5335 5331 5329 5327 5326 5326 5325 5324 5323 5321 5318 5315
5432 5431 5429 5427 5424 5421 5418 5414 5409 5404 5397 5390 5384 5378 5371 5363 5355 5348 5340 5334 5332 5327 5324 5325 5326 5327 5326 5323 5321 5319 5318 5317 5317 5316 5315 5313 5311 5308
5424 5422 5419 5417 5414 5411 5408 5404 5398 5392 5385 5378 5371 5364 5356 5348 5339 5332 5325 5318 5313 5311 5312 5311 5311 5309 5315 5318 5314 5312 5312 5311 5311 5310 5309 5307 5304 5302
5418 5415 5412 5407 5404 5400 5396 5390 5383 5376 5370 5363 5356 5349 5342 5334 5327 5318 5311 5304 5299 5299 5300 5298 5298 5296 5296 5305 5309 5306 5306 5307 5307 5306 5303 5301 5299 5296
5410 5407 5403 5397 5393 5388 5382 5375 5368 5361 5354 5347 5340 5335 5328 5320 5313 5306 5300 5295 5292 5291 5291 5287 5287 5287 5287 5291 5298 5304 5304 5302 5301 5300 5299 5297 5294 5292
5401 5396 5392 5386 5381 5375 5368 5360 5353 5346 5338 5332 5327 5320 5313 5307 5301 5297 5294 5291 5289 5288 5287 5284 5282 5281 5279 5281 5288 5292 5295 5298 5295 5295 5294 5292 5290 5288
5392 5386 5380 5374 5368 5361 5354 5347 5339 5331 5324 5317 5312 5306 5301 5297 5295 5292 5290 5288 5287 5290 5289 5285 5281 5278 5278 5278 5278 5283 5286 5287 5293 5291 5290 5290 5288 5286
5381 5376 5371 5365 5359 5351 5343 5334 5326 5318 5311 5304 5299 5295 5293 5291 5290 5288 5285 5283 5282 5286 5288 5284 5282 5279 5278 5275 5277 5281 5284 5288 5289 5288 5288 5290 5290 5288
5370 5366 5360 5353 5346 5337 5329 5322 5315 5308 5301 5295 5291 5288 5286 5284 5283 5282 5281 5280 5280 5282 5282 5282 5280 5281 5283 5287 5283 5283 5286 5287 5288 5287 5286 5288 5293 5292
5359 5354 5347 5339 5331 5323 5316 5310 5304 5299 5293 5288 5285 5283 5281 5279 5278 5278 5277 5277 5278 5279 5279 5278 5276 5277 5281 5290 5296 5286 5283 5287 5287 5288 5287 5288 5292 5295
5348 5342 5335 5327 5320 5313 5307 5302 5297 5293 5289 5286 5283 5280 5277 5275 5274 5274 5274 5274 5275 5276 5278 5277 5275 5275 5276 5282 5290 5291 5282 5281 5284 5288 5290 5292 5294 5296
5339 5332 5325 5317 5311 5305 5300 5295 5291 5288 5285 5282 5279 5277 5275 5272 5271 5271 5270 5271 5271 5273 5276 5279 5278 5274 5273 5275 5283 5294 5292 5286 5283 5284 5287 5289 5294 5297
5330 5323 5316 5309 5303 5298 5294 5290 5287 5285 5283 5280 5278 5275 5272 5270 5268 5268 5267 5268 5270 5271 5274 5277 5277 5276 5275 5277 5283 5291 5296 5294 5291 5288 5287 5287 5288 5296
5322 5315 5308 5302 5296 5292 5288 5285 5282 5280 5278 5276 5274 5271 5269 5267 5266 5265 5265 5266 5267 5269 5272 5276 5279 5279 5279 5280 5283 5287 5291 5294 5296 5296 5296 5293 5292 5294